Presure
253 253 236 234 233 247 248 246 254 264 244 250 266 251 289 284 279 285 282 255 225 233 235 244 235 228 236 223 140 217 225 228 222 220 214 212 212 210 231 194 219 192 221 230
277 278 274 279 277 273 268 247 257 273 274 272 284 285 291 291 289 303 307 300 281 272 269 295 279 241 238 233 228 242 227 226 221 225 218 217 215 236 194 224 232 227 223 223
272 270 274 281 274 282 281 272 274 272 273 278 273 293 305 327 331 346 385 387 392 395 384 351 303 286 270 266 241 230 243 230 172 226 230 228 234 237 227 187 221 224 237 225
276 264 264 274 281 176 155 274 270 283 300 318 319 323 368 373 374 372 376 373 379 381 366 367 336 356 298 320 290 265 243 229 226 225 229 222 221 219 222 229 230 229 235 228
270 274 287 288 255 289 83 309 303 310 312 354 356 352 348 351 352 351 343 344 345 363 333 288 277 292 331 320 294 292 263 243 244 236 227 226 226 232 232 240 237 246 245 235
296 290 290 303 297 306 302 310 370 355 346 337 330 328 324 325 338 346 331 317 322 327 310 281 276 292 285 258 247 245 253 260 261 248 244 239 235 235 240 242 248 234 236 254
296 295 312 315 313 367 363 349 343 334 323 314 312 315 311 321 329 345 335 313 309 314 317 298 298 274 285 276 274 258 241 250 256 252 249 253 251 248 243 236 259 256 249 258
304 309 322 362 373 348 333 330 326 314 309 307 306 314 313 316 315 314 316 311 304 304 301 302 277 278 264 258 186 252 246 247 245 216 244 249 251 251 256 258 254 255 267 275
359 363 347 331 318 314 308 305 321 319 316 307 303 300 295 301 328 319 322 325 305 295 299 283 270 286 262 248 256 255 249 244 243 240 249 251 250 248 252 255 257 261 269 268
352 338 334 322 324 307 305 305 315 305 306 297 291 294 295 292 303 308 315 327 314 299 293 296 290 282 276 260 260 262 253 259 257 256 258 261 261 256 254 257 255 271 265 268
346 329 329 346 337 322 308 300 299 294 294 205 285 251 293 299 220 239 303 313 335 320 320 180 290 280 276 272 264 265 262 260 271 270 270 261 262 270 264 266 264 273 282 269
346 341 328 318 310 299 295 293 183 196 261 302 293 158 289 289 285 287 285 289 308 331 329 216 290 290 286 288 274 269 271 266 266 262 270 270 262 261 266 265 268 272 267 274
326 319 312 309 295 294 283 293 295 293 260 295 291 286 283 157 162 281 287 292 324 328 307 317 328 332 303 286 280 275 271 273 273 273 273 274 270 273 278 280 278 276 296 319
309 305 294 305 304 297 294 290 290 294 276 275 282 288 301 296 276 314 323 321 321 322 312 318 307 324 327 310 323 324 323 324 322 292 281 296 288 290 304 334 335 332 324 317
293 288 291 292 292 294 296 298 280 290 287 295 298 315 317 365 396 400 405 392 380 349 352 351 331 320 323 329 323 325 322 319 322 324 325 325 328 333 320 321 353 348 340 326
283 303 294 282 276 284 271 281 281 289 288 289 318 365 357 358 359 364 361 355 346 337 328 323 322 322 322 322 322 317 318 322 327 326 325 334 307 295 299 333 333 334 327 320
297 284 292 281 284 291 287 287 295 290 298 322 346 326 322 323 320 319 317 319 323 324 322 322 321 324 329 334 334 329 332 334 333 316 300 292 283 288 291 293 305 313 315 316
300 296 279 282 289 296 288 288 285 297 321 329 323 311 312 312 315 314 309 304 302 299 297 295 295 295 297 295 293 293 291 286 284 283 282 283 289 294 279 279 279 291 300 304
276 279 283 288 300 303 310 294 310 329 316 321 317 306 299 294 290 288 288 286 283 280 278 280 280 280 280 281 283 285 285 284 282 285 287 283 280 285 288 297 285 280 288 313
282 293 313 322 384 348 323 352 328 317 307 296 288 285 283 282 278 276 274 272 268 267 267 268 269 272 311 312 312 307 298 289 281 275 274 277 280 280 276 274 278 288 283 279
291 299 300 330 317 315 322 319 302 287 279 279 277 274 272 267 264 262 261 261 261 256 256 258 264 272 272 269 266 292 298 307 319 321 330 315 290 277 271 272 275 273 271 267
297 304 314 316 314 305 293 286 277 276 273 270 266 262 260 258 259 257 254 253 255 259 262 265 263 266 267 266 286 282 286 303 312 317 317 319 328 361 327 296 283 275 271 270
311 307 305 293 286 282 278 274 270 264 261 258 252 253 258 259 256 252 257 256 259 261 264 260 268 269 268 282 278 281 294 299 303 310 314 314 319 318 344 356 336 316 299 289
313 294 285 278 274 271 267 262 257 254 253 251 260 261 259 261 256 261 261 257 258 263 259 271 263 269 277 279 293 296 302 304 310 324 337 342 345 333 330 317 362 350 342 331
286 275 273 268 264 260 257 253 256 249 260 264 262 266 268 266 263 260 257 257 265 258 279 264 275 280 283 297 301 303 305 321 355 375 366 358 349 341 333 328 322 312 320 349
274 270 263 261 253 254 252 254 267 268 268 272 271 268 264 258 259 260 256 252 256 258 263 277 283 289 295 297 301 304 332 378 368 361 356 352 348 340 335 328 323 320 315 312
266 263 255 254 252 256 269 272 267 269 266 265 264 260 259 260 258 251 252 253 258 259 268 274 290 294 295 297 304 333 372 361 355 351 347 345 343 340 337 332 327 324 321 318
Wind_Speed
123 126 130 129 126 130 129 127 135 128 130 126 129 122 118 119 115 113 112 105 104 104 104 110 107 106 106 101 55 100 104 104 100 100 99 98 98 94 101 91 105 87 93 98
109 112 119 116 108 110 116 119 121 119 119 117 113 110 105 102 104 104 101 100 102 105 107 104 106 105 104 102 104 105 102 102 100 102 104 103 106 96 83 116 109 98 95 94
105 107 110 108 98 104 103 105 105 106 106 107 99 105 100 95 92 84 63 63 61 62 62 76 88 93 95 92 97 99 99 98 80 102 105 104 104 98 99 68 99 102 111 100
102 103 106 95 95 48 51 96 100 102 98 95 94 92 67 59 54 54 51 47 42 42 44 43 56 49 75 60 77 84 87 95 99 101 99 101 103 105 107 112 108 110 112 103
101 99 97 86 69 93 29 88 91 90 90 66 59 57 59 53 51 49 44 42 32 35 28 34 56 57 32 43 46 50 76 92 95 101 107 108 109 112 113 110 111 113 111 104
91 93 90 76 84 86 86 78 55 55 55 52 52 52 54 52 48 42 40 42 34 34 42 56 60 32 37 55 65 63 71 73 80 90 102 101 106 108 110 113 106 105 101 101
87 87 83 78 82 59 47 43 48 49 48 49 51 50 51 45 43 37 36 39 41 36 47 52 46 51 43 45 49 63 79 79 76 79 89 88 91 96 101 93 103 101 98 100
85 84 79 52 40 39 40 45 44 45 47 48 48 43 42 43 44 42 37 37 43 39 37 42 45 46 48 54 44 67 71 74 79 70 91 88 90 95 92 91 95 97 96 93
63 52 46 45 50 42 45 44 34 40 39 37 41 43 47 45 37 39 35 35 43 47 46 49 53 58 57 63 67 73 76 81 83 88 93 91 92 92 96 98 97 93 95 88
49 40 43 48 49 42 45 40 40 41 37 40 42 41 40 41 42 40 37 32 39 49 51 55 54 55 68 68 71 75 80 84 87 91 93 94 92 92 93 93 91 97 91 93
39 36 42 37 41 40 39 37 42 41 39 33 43 37 40 42 35 37 43 41 37 37 46 36 59 60 63 66 65 70 75 78 84 81 83 85 87 90 89 89 88 93 95 90
28 32 31 32 31 36 38 40 27 30 39 38 35 24 44 37 42 46 47 42 43 41 37 44 58 63 65 70 70 71 73 75 81 78 89 88 87 86 88 87 89 88 85 86
32 33 32 37 41 41 42 39 38 40 41 38 38 40 43 34 36 50 50 47 48 46 35 35 35 37 68 71 72 73 76 80 83 86 85 90 89 90 92 90 90 89 94 72
34 34 32 33 39 37 40 42 41 40 36 39 43 47 51 52 52 53 51 46 44 43 41 39 37 35 39 46 47 52 58 62 62 81 85 86 88 88 83 65 62 62 59 56
34 34 32 31 32 33 36 37 34 36 38 42 46 54 51 47 33 33 32 39 37 35 34 30 29 33 34 36 43 47 50 52 53 56 55 54 53 49 48 51 48 44 40 42
35 28 35 35 34 37 28 30 31 34 35 36 53 25 20 11 9 6 1 4 7 11 17 22 27 31 34 37 39 41 44 46 47 47 45 42 37 38 41 33 30 31 34 35
38 36 35 36 36 36 32 31 32 29 36 44 17 10 7 5 4 3 4 6 8 10 13 16 19 23 26 28 30 31 31 32 32 29 29 31 33 36 36 33 29 28 30 32
36 31 28 32 37 37 29 24 24 30 34 25 12 7 5 4 2 0 0 0 1 3 4 6 9 10 13 15 17 20 22 23 25 28 30 33 34 36 36 35 33 31 32 33
25 26 30 32 36 33 34 24 32 28 16 12 4 3 4 4 3 2 1 0 2 3 5 8 10 12 14 17 20 23 25 27 29 31 33 35 35 35 36 37 37 35 35 37
25 24 21 21 6 11 14 13 13 9 9 8 6 5 4 3 2 1 1 3 4 6 9 11 13 15 21 24 27 31 33 34 34 35 37 38 39 41 42 41 40 39 39 41
21 16 11 11 8 8 7 9 11 12 11 8 6 6 5 3 2 3 6 8 10 12 15 17 18 19 21 24 27 27 29 31 33 37 40 46 48 46 46 47 47 46 47 47
16 13 14 8 7 12 15 15 13 10 8 7 6 4 4 5 6 8 11 13 16 17 19 20 23 25 27 29 30 32 34 34 33 34 36 39 42 48 53 56 55 53 53 53
10 9 10 14 15 16 15 13 11 8 7 6 6 6 7 8 11 14 15 17 19 21 23 25 27 29 32 34 36 38 37 37 37 38 39 40 40 42 45 49 56 59 62 62
9 16 19 18 16 14 12 11 9 8 8 9 9 10 11 12 15 16 17 19 21 24 27 28 31 34 35 37 37 38 39 40 41 41 40 38 36 38 41 44 45 49 54 59
21 21 19 16 14 12 10 9 8 9 12 12 12 11 12 13 15 17 20 23 25 28 28 33 35 37 39 40 40 42 44 46 43 33 30 30 31 33 35 38 41 44 45 49
22 20 17 15 12 11 9 9 11 11 11 9 9 11 12 15 17 20 22 26 29 31 34 35 37 39 41 42 44 46 49 35 30 28 26 26 27 30 31 34 36 38 40 42
22 19 16 14 12 11 11 10 10 9 9 9 11 13 15 17 19 23 26 29 31 34 36 38 40 41 43 45 47 49 33 30 26 24 23 22 23 25 27 29 32 34 37 39
Wind_Direction
264 264 268 269 272 271 273 274 271 272 273 274 272 272 273 273 272 271 268 266 268 268 267 267 267 267 268 270 271 273 274 275 278 278 278 279 281 276 280 280 285 283 289 291
265 265 266 267 270 272 271 273 274 274 273 274 275 275 274 272 272 272 270 267 264 263 264 264 265 265 265 267 269 268 269 271 274 275 275 278 278 277 279 280 285 288 291 292
269 269 270 272 275 272 274 274 274 274 274 274 275 275 276 277 276 274 272 272 271 265 259 262 262 262 262 263 263 266 268 271 275 271 271 273 274 278 280 286 286 289 288 291
268 269 271 273 272 258 252 272 272 273 275 277 277 279 281 281 277 275 275 268 267 257 255 257 260 260 258 256 258 259 263 265 268 271 272 276 277 279 279 280 282 284 285 291
269 269 271 273 272 271 237 271 273 276 277 277 278 279 279 281 279 277 272 267 254 246 232 254 263 260 243 234 259 260 254 258 258 260 265 269 273 273 275 277 280 279 283 288
268 271 273 277 272 272 273 275 265 267 271 274 277 278 279 281 281 276 265 266 246 232 212 235 251 244 230 239 251 255 258 256 258 258 263 265 267 270 271 273 275 282 284 282
273 274 275 274 273 274 265 268 261 263 267 270 273 274 275 280 284 286 262 251 251 245 226 230 226 234 236 239 232 233 250 255 260 259 261 264 266 267 271 273 273 276 282 283
270 272 276 273 261 258 262 257 258 261 262 265 269 273 275 278 278 279 271 253 247 241 225 218 226 224 230 233 256 237 247 253 256 263 262 265 267 272 273 273 275 278 280 283
268 268 266 261 261 258 261 263 254 252 256 260 264 267 270 273 284 275 273 263 247 243 231 224 237 221 222 240 238 235 241 249 255 259 259 259 261 266 268 269 274 278 280 282
259 260 252 252 249 254 255 260 254 260 255 257 263 266 271 275 279 280 279 271 254 248 244 233 231 227 223 234 240 237 242 246 249 251 255 257 260 262 266 269 274 275 279 282
253 247 249 244 245 242 246 251 251 255 257 268 266 269 268 273 277 276 281 283 281 258 249 279 237 236 237 238 244 245 244 248 252 254 256 259 263 265 267 270 273 278 279 281
246 223 226 234 231 241 245 248 253 269 266 268 271 282 275 267 270 271 274 278 281 272 265 260 245 244 243 238 243 249 253 254 256 260 260 259 263 268 271 274 277 278 280 284
200 215 223 221 235 241 250 253 257 264 264 274 279 277 269 265 271 273 273 273 277 274 258 259 256 244 240 244 249 250 252 254 256 257 260 263 266 269 272 275 275 276 279 280
212 220 233 237 236 250 250 259 265 271 270 274 274 275 276 273 274 277 273 266 265 266 266 266 252 252 247 240 246 245 246 250 252 256 261 262 265 270 273 277 278 276 274 273
223 231 233 237 245 247 253 258 268 276 278 282 285 292 289 295 292 286 279 273 271 263 261 257 254 256 255 253 252 254 255 257 260 262 266 271 273 273 274 276 273 270 264 264
234 234 231 238 255 254 258 266 265 279 281 290 300 296 293 305 329 324 281 232 239 244 248 251 250 254 257 258 258 260 264 266 266 266 269 268 267 272 277 279 277 274 267 265
226 242 232 251 258 259 272 273 277 280 295 297 288 298 304 323 333 315 287 273 265 262 259 262 263 264 264 261 260 262 265 264 264 263 264 266 268 271 273 278 282 279 271 263
240 253 256 259 260 262 262 266 278 287 290 287 269 279 286 285 298 317 157 192 266 280 284 280 277 278 276 273 273 272 270 269 269 269 269 269 270 271 271 273 275 276 271 263
242 249 257 267 269 270 271 276 279 278 274 265 246 151 137 128 129 118 109 288 286 288 286 287 288 288 286 284 281 278 277 275 274 272 269 269 271 273 274 274 271 270 269 260
260 275 297 310 250 218 241 244 245 246 208 182 161 153 156 159 158 166 239 276 276 285 287 290 291 292 286 284 282 280 279 277 276 274 273 272 272 271 271 271 271 270 268 267
263 267 292 265 165 174 196 192 163 172 185 170 165 171 181 188 228 275 290 294 292 287 287 289 290 292 290 289 288 290 288 285 279 275 269 266 267 268 269 269 269 268 267 267
249 269 275 231 167 157 162 158 166 170 172 177 184 197 231 257 275 281 283 283 286 290 292 293 292 294 293 292 297 294 293 293 289 283 276 272 268 260 260 262 265 267 268 268
236 227 192 161 157 164 159 155 163 171 191 208 221 244 259 275 277 277 282 284 290 294 297 298 301 300 300 299 298 296 295 293 291 287 282 277 272 268 262 258 258 260 262 264
201 173 167 164 165 161 159 166 176 198 224 242 251 257 264 269 273 282 288 293 297 300 298 301 300 302 301 301 299 298 299 297 296 295 290 284 278 271 267 265 260 260 260 262
168 170 165 163 166 171 179 191 213 234 246 249 258 267 276 281 287 292 296 299 304 303 306 303 306 305 306 308 309 309 309 309 306 297 288 280 274 269 268 268 268 268 268 267
170 167 168 172 179 192 206 224 234 239 249 259 271 278 285 289 293 296 298 300 304 305 308 313 314 314 313 316 317 316 316 309 304 297 292 286 278 274 272 270 272 273 274 276
172 175 178 189 202 216 222 222 233 241 254 267 276 282 287 290 292 294 298 301 306 308 315 317 321 320 321 322 322 322 316 313 307 300 296 292 286 282 279 278 276 276 277 277